Eelde, Netherlands

6:22 PM CEST on May 22, 2017 (GMT +0200)
Eelde

Weather History for EHGG - January, 2014

Change the Weather History Date:

Wednesday, January 8, 2014

  Actual Average Record
Temperature  
Mean Temperature 46 °F -  
Max Temperature 49 °F 39 °F 53 °F (2005)
Min Temperature 42 °F 29 °F 15 °F (1997)
Degree Days  
Heating Degree Days 20    
Moisture  
Dew Point 44 °F    
Average Humidity 87    
Maximum Humidity 93    
Minimum Humidity 73    
Precipitation  
Precipitation 0.00 in 0.08 in - ()
Sea Level Pressure  
Sea Level Pressure 29.90 in    
Wind  
Wind Speed 15 mph ()    
Max Wind Speed 25 mph    
Max Gust Speed 32 mph    
Visibility 7.6 miles    
Events Rain    
Averages and records for this station are not official NWS values.
T = Trace of Precipitation, MM = Missing Value Source: Averaged Metar Reports

Daily Weather History Graph

Daily Weather History Graph

Search for Another Location

Airport or City:

Trip Planner

Search our weather history database for the weather conditions in past years. The results will help you decide how hot, cold, wet, or windy it might be!

Date:

Astronomy

Jan. 08, 2014 Rise Set
Actual Time 8:45 AM CET 4:35 PM CET
Civil Twilight 8:03 AM CET 5:17 PM CET
Nautical Twilight 7:19 AM CET 6:01 PM CET
Astronomical Twilight 6:37 AM CET 6:43 PM CET
Moon 11:49 AM CET (1/8) 1:00 AM CET (1/8)
Length of Visible Light 9h 13m
Length of Day
7h 50m
First Quarter, 53% of the Moon is Illuminated
Jan 8
First Quarter
Jan 16
Full
Jan 24
Last Quarter
Jan 30
New
Feb 6
First Quarter

Hourly Weather History & Observations

Time (CET) Temp. Windchill Dew Point Humidity Pressure Visibility Wind Dir Wind Speed Gust Speed Precip Events Conditions
12:00 AM 50 °F - 44 °F 73% 29.81 in 17 mi SSW 15.7 mph - -   Overcast
12:25 AM 48.2 °F - 42.8 °F 82% 29.80 in 6.2 mi SSW 16.1 mph - N/A   Partly Cloudy
12:55 AM 48.2 °F - 44.6 °F 87% 29.80 in 6.2 mi SSW 17.3 mph - N/A   Unknown
1:00 AM 49 °F - 44 °F 76% 29.82 in 17 mi SSW 15.7 mph - -   Partly Cloudy
1:25 AM 48.2 °F - 44.6 °F 87% 29.80 in 6.2 mi SSW 13.8 mph - N/A   Unknown
1:55 AM 48.2 °F - 44.6 °F 87% 29.80 in 6.2 mi SSW 11.5 mph - N/A   Mostly Cloudy
2:00 AM 48 °F - 44 °F 81% 29.81 in 17 mi SSW 13.4 mph - -   Partly Cloudy
2:25 AM 48.2 °F - 44.6 °F 87% 29.80 in 6.2 mi SSW 12.7 mph - N/A   Partly Cloudy
2:55 AM 48.2 °F - 44.6 °F 87% 29.80 in 6.2 mi SSW 12.7 mph - N/A   Partly Cloudy
3:00 AM 49 °F - 45 °F 81% 29.82 in 16 mi SSW 13.4 mph - -   Overcast
3:25 AM 48.2 °F - 44.6 °F 87% 29.80 in 6.2 mi SSW 11.5 mph - N/A Rain Light Rain
3:55 AM 50.0 °F - 46.4 °F 87% 29.80 in 6.2 mi SSW 13.8 mph - N/A Rain Drizzle
4:00 AM 49 °F - 46 °F 85% 29.82 in 8 mi SSW 13.4 mph - - Rain Light Rain Showers
4:25 AM 48.2 °F - 46.4 °F 93% 29.80 in 6.2 mi SW 16.1 mph - N/A Rain Heavy Drizzle
4:55 AM 48.2 °F - 46.4 °F 93% 29.80 in 5.6 mi SW 16.1 mph - N/A Rain Light Rain
5:00 AM 47 °F - 46 °F 92% 29.82 in 6 mi SW 15.7 mph - - Rain Light Rain
5:25 AM 46.4 °F 40.7 °F 44.6 °F 93% 29.80 in 6.2 mi SW 12.7 mph - N/A Rain Light Rain
5:55 AM 46.4 °F 40.4 °F 44.6 °F 93% 29.80 in 6.2 mi SW 13.8 mph - N/A   Drizzle
6:00 AM 46 °F - 44 °F 90% 29.81 in 12 mi SSW 13.4 mph - - Rain Light Rain
6:25 AM 46.4 °F 41.1 °F 42.8 °F 87% 29.80 in 6.2 mi SSW 11.5 mph - N/A   Scattered Clouds
6:55 AM 46.4 °F 40.7 °F 44.6 °F 93% 29.80 in 6.2 mi SSW 12.7 mph - N/A   Partly Cloudy
7:00 AM 46 °F - 44 °F 89% 29.84 in 17 mi SW 15.7 mph - - Rain Rain
7:25 AM 46.4 °F 40.1 °F 44.6 °F 93% 29.83 in 6.2 mi SW 15.0 mph - N/A   Overcast
7:55 AM 46.4 °F 39.5 °F 42.8 °F 87% 29.86 in 6.2 mi SW 17.3 mph - N/A   Overcast
8:00 AM 47 °F - 44 °F 85% 29.87 in 19 mi SW 17.9 mph - -   Overcast
8:25 AM 48.2 °F - 44.6 °F 87% 29.86 in 6.2 mi WSW 19.6 mph - N/A   Overcast
8:55 AM 48.2 °F - 44.6 °F 87% 29.86 in 6.2 mi WSW 18.4 mph - N/A   Overcast
9:00 AM 47 °F - 45 °F 88% 29.89 in 9 mi WSW 15.7 mph - -   Overcast
9:25 AM 48.2 °F - 44.6 °F 87% 29.89 in 6.2 mi SW 19.6 mph - N/A   Overcast
9:55 AM 48.2 °F - 44.6 °F 87% 29.92 in 6.2 mi WSW 19.6 mph - N/A   Overcast
10:00 AM 48 °F - 45 °F 84% 29.94 in 9 mi WSW 20.1 mph - -   Overcast
10:25 AM 48.2 °F - 44.6 °F 87% 29.92 in 6.2 mi WSW 19.6 mph 32.2 mph N/A   Overcast
10:55 AM 48.2 °F - 44.6 °F 87% 29.92 in 6.2 mi WSW 19.6 mph - N/A   Overcast
11:00 AM 48 °F - 44 °F 83% 29.95 in 10 mi WSW 20.1 mph - -   Overcast
11:25 AM 48.2 °F - 44.6 °F 87% 29.95 in 6.2 mi SW 23.0 mph - N/A   Overcast
11:55 AM 48.2 °F - 44.6 °F 87% 29.95 in 6.2 mi SW 21.9 mph - N/A   Mostly Cloudy
12:00 PM 49 °F - 45 °F 80% 29.95 in 10 mi SW 22.4 mph - -   Overcast
12:25 PM 48.2 °F - 44.6 °F 87% 29.95 in 6.2 mi SW 20.7 mph - N/A   Overcast
12:55 PM 48.2 °F - 44.6 °F 87% 29.95 in 6.2 mi SW 23.0 mph - N/A   Mostly Cloudy
1:00 PM 49 °F - 44 °F 79% 29.96 in 11 mi SW 24.6 mph - -   Partly Cloudy
1:25 PM 50.0 °F - 44.6 °F 82% 29.95 in 6.2 mi SW 23.0 mph - N/A   Mostly Cloudy
1:55 PM 50.0 °F - 44.6 °F 82% 29.95 in 6.2 mi SW 25.3 mph - N/A   Mostly Cloudy
2:00 PM 49 °F - 45 °F 79% 29.95 in 11 mi SW 24.6 mph - -   Overcast
2:25 PM 50.0 °F - 44.6 °F 82% 29.95 in 6.2 mi WSW 21.9 mph - N/A   Overcast
2:55 PM 50.0 °F - 44.6 °F 82% 29.95 in 6.2 mi SW 23.0 mph - N/A   Mostly Cloudy
3:00 PM 49 °F - 44 °F 78% 29.96 in 11 mi WSW 24.6 mph - -   Scattered Clouds
3:25 PM 50.0 °F - 44.6 °F 82% 29.95 in 6.2 mi WSW 21.9 mph - N/A   Mostly Cloudy
3:55 PM 48.2 °F - 44.6 °F 87% 29.95 in 6.2 mi WSW 20.7 mph - N/A   Mostly Cloudy
4:00 PM 49 °F - 44 °F 78% 29.98 in 11 mi WSW 20.1 mph - -   Overcast
4:25 PM 48.2 °F - 44.6 °F 87% 29.98 in 6.2 mi WSW 20.7 mph - N/A   Overcast
4:55 PM 48.2 °F - 44.6 °F 87% 29.95 in 6.2 mi WSW 19.6 mph - N/A   Mostly Cloudy
5:00 PM 48 °F - 44 °F 80% 29.98 in 11 mi WSW 20.1 mph - -   Mostly Cloudy
5:25 PM 48.2 °F - 44.6 °F 87% 29.98 in 6.2 mi WSW 18.4 mph - N/A   Mostly Cloudy
5:55 PM 48.2 °F - 44.6 °F 87% 29.95 in 6.2 mi SW 13.8 mph - N/A   Overcast
6:00 PM 47 °F - 44 °F 85% 29.97 in 11 mi WSW 13.4 mph - -   Overcast
6:25 PM 48.2 °F - 44.6 °F 87% 29.95 in 6.2 mi WSW 13.8 mph - N/A   Overcast
6:55 PM 46.4 °F 40.4 °F 44.6 °F 93% 29.95 in 6.2 mi SW 13.8 mph - N/A   Overcast
7:00 PM 47 °F - 44 °F 85% 29.98 in 11 mi SW 15.7 mph - -   Partly Cloudy
7:25 PM 46.4 °F 40.1 °F 44.6 °F 93% 29.95 in 6.2 mi SW 15.0 mph - N/A   Overcast
7:55 PM 46.4 °F 40.7 °F 42.8 °F 87% 29.98 in 6.2 mi SSW 12.7 mph - N/A   Scattered Clouds
8:00 PM 46 °F - 43 °F 86% 29.98 in 7 mi SW 11.2 mph - -   Mostly Cloudy
8:25 PM 46.4 °F 41.5 °F 42.8 °F 87% 29.98 in 6.2 mi SW 10.4 mph - N/A   Overcast
8:55 PM 44.6 °F 39.2 °F 42.8 °F 93% 29.98 in 5.0 mi SSW 10.4 mph - N/A   Mostly Cloudy
9:00 PM 44 °F - 42 °F 89% 29.98 in 4 mi SSW 6.7 mph - -   Mist
9:25 PM 42.8 °F 38.6 °F 41.0 °F 93% 29.98 in 4.3 mi SSW 6.9 mph - N/A   Partly Cloudy
9:55 PM 42.8 °F 38.0 °F 41.0 °F 93% 29.95 in 3.7 mi SSW 8.1 mph - N/A   Unknown
10:00 PM 43 °F - 42 °F 92% 29.97 in 4 mi SSW 8.9 mph - -   Mist
10:25 PM 42.8 °F 38.0 °F 41.0 °F 93% 29.95 in 3.7 mi SSW 8.1 mph - N/A   Unknown
10:55 PM 42.8 °F 38.0 °F 41.0 °F 93% 29.95 in 3.1 mi South 8.1 mph - N/A   Mist
11:00 PM 43 °F - 41 °F 92% 29.95 in 3 mi South 8.9 mph - -   Mist
11:25 PM 42.8 °F 37.5 °F 41.0 °F 93% 29.92 in - South 9.2 mph - N/A   Mist
11:55 PM 42.8 °F 38.0 °F 41.0 °F 93% 29.92 in - South 8.1 mph - N/A   Mist